Dewpoint
60 60 60 59 60 60 60 59 58 58 58 58 58 58 59 58 53 43 28 33 41 46 44 43 39 38 36 34 34 27 16 15 18 20 18 22 22 24 30 31 31 33 34 33 38
59 60 60 60 60 60 60 59 58 58 58 58 57 58 58 58 44 34 33 46 45 46 37 35 27 31 31 32 34 30 21 14 15 16 21 23 25 25 23 23 23 26 31 33 40
59 59 59 59 59 60 60 59 58 58 58 57 57 57 58 56 32 27 43 49 49 45 44 40 31 26 27 27 30 29 25 27 26 25 26 26 26 26 23 20 21 20 21 30 37
59 59 59 60 60 59 59 59 59 58 58 57 56 57 56 44 22 32 55 51 52 44 35 26 23 22 21 21 27 26 27 28 28 27 28 25 24 23 24 21 23 24 25 30 32
59 59 60 60 60 60 59 59 58 58 57 56 56 56 38 27 26 42 48 50 39 33 26 24 23 22 19 21 22 22 21 23 25 26 25 25 23 23 22 24 23 23 23 25 29
60 60 60 60 59 59 59 57 57 57 56 55 56 56 36 24 30 44 35 32 32 31 26 26 24 25 23 22 20 21 23 23 23 22 21 21 20 22 20 23 21 21 21 23 24
59 59 59 59 59 58 57 57 57 57 55 55 57 50 31 25 31 41 32 28 29 27 26 28 27 25 23 20 24 24 19 19 19 21 20 22 14 18 22 22 20 21 22 24 25
59 59 59 58 57 57 56 56 56 55 55 56 55 45 25 29 32 33 32 28 29 29 29 29 28 25 24 25 22 20 18 14 16 17 22 21 7 16 22 19 19 21 23 25 27
59 59 58 57 57 56 55 55 55 55 55 54 43 30 24 30 29 29 29 27 28 29 29 28 27 24 25 21 17 18 14 14 14 17 16 19 13 18 22 19 20 22 23 25 27
58 58 57 57 56 54 54 54 51 51 52 52 43 28 27 26 27 29 29 28 27 27 26 27 25 22 22 19 9 13 14 15 13 13 16 16 17 18 20 19 20 22 23 25 26
58 57 56 55 53 53 48 41 35 33 41 27 28 26 23 27 28 27 28 27 25 24 21 24 21 16 17 21 19 19 17 15 14 15 18 17 17 19 20 20 21 22 23 24 25
57 56 54 53 53 53 45 33 28 30 28 33 33 30 29 26 23 25 27 25 24 22 22 21 18 19 22 21 20 18 15 14 14 17 18 17 18 18 19 20 22 23 23 24 24
55 54 54 53 52 47 39 34 40 36 27 25 32 32 30 26 23 22 25 23 21 20 20 17 15 22 20 19 16 16 14 13 14 18 19 19 15 17 20 22 23 25 24 24 24
55 54 53 52 40 40 36 38 41 30 17 17 25 28 26 26 23 25 26 23 21 19 20 19 20 18 17 16 16 14 16 17 17 16 10 19 10 15 18 20 22 23 22 23 25
54 54 53 45 38 39 38 42 34 23 6 16 24 27 26 24 23 24 25 22 19 19 18 13 18 17 16 15 17 16 20 18 18 17 18 17 14 14 17 18 20 23 22 24 26
53 54 53 48 43 40 40 35 29 15 8 21 23 23 24 24 24 24 23 24 23 20 20 18 21 19 18 20 19 20 19 19 22 20 14 15 15 12 16 18 19 22 22 24 27
53 54 50 42 33 41 37 31 19 11 16 20 21 23 22 22 22 22 21 20 19 15 15 19 20 21 21 18 21 20 14 6 1 10 9 18 15 13 15 16 19 21 22 24 27
52 53 51 45 43 39 33 25 15 13 17 23 23 23 20 21 21 22 21 18 20 19 19 16 9 20 21 18 17 19 14 8 1 3 8 15 11 10 20 22 20 23 24 25 27
52 47 43 40 42 36 30 23 16 18 21 23 22 20 19 21 18 22 21 21 21 20 15 17 15 21 21 21 19 17 16 15 14 16 13 13 14 15 21 22 22 23 25 25 26
40 38 41 47 41 34 29 25 22 20 25 24 20 21 18 21 21 21 20 22 21 23 21 18 14 20 21 20 20 20 19 15 15 8 7 11 12 12 19 21 22 22 23 25 28
40 33 43 44 38 34 28 25 25 26 25 23 22 20 20 21 21 21 20 20 23 22 22 19 16 16 20 18 17 18 17 16 16 15 9 9 10 16 18 22 22 23 25 28 30
41 30 46 41 34 33 30 28 28 25 25 25 24 21 19 20 21 20 19 18 24 22 21 20 17 14 15 19 19 18 17 16 14 13 16 14 13 18 19 23 23 23 28 30 31
40 43 46 38 29 30 30 29 28 24 22 22 21 23 23 19 16 20 18 25 24 21 19 21 18 13 11 17 18 18 18 18 17 17 15 13 14 19 23 24 24 25 27 30 31
41 37 42 41 37 30 29 27 26 28 25 24 22 25 23 21 22 18 21 26 27 25 26 22 18 13 10 10 17 16 19 18 18 16 16 15 15 18 21 23 23 27 29 31 29
39 35 41 38 37 31 29 27 26 25 27 27 25 23 22 20 21 20 23 26 27 29 25 22 18 19 19 16 20 20 19 20 17 19 18 18 17 18 20 23 26 30 29 28 28
39 36 39 38 38 35 31 28 26 27 27 26 25 26 25 21 20 18 23 26 23 27 24 27 21 23 22 25 25 24 25 25 24 23 22 22 22 26 27 29 30 27 27 27 29
41 45 38 37 36 36 34 32 28 28 29 28 27 26 26 25 25 24 26 27 26 25 25 25 25 24 21 27 25 23 25 25 27 27 26 24 25 28 28 27 26 27 27 27 31
Wind_Speed
10 11 10 9 9 10 11 11 11 8 8 11 12 12 13 13 9 1 3 3 3 6 3 3 3 3 3 3 3 3 1 4 5 4 4 3 7 4 1 5 4 5 6 3 1
11 12 11 9 9 11 11 13 12 9 8 10 12 13 12 11 2 4 4 7 5 6 3 2 1 2 2 2 2 2 2 6 4 3 7 8 8 5 5 10 9 9 9 0 7
10 12 11 11 9 10 11 13 12 10 9 9 11 13 13 4 1 4 0 8 7 6 4 2 3 2 1 1 1 3 5 5 8 11 7 10 9 4 4 13 13 15 11 4 7
12 13 11 11 9 9 11 12 13 11 9 9 10 12 10 2 5 2 5 8 8 7 4 3 2 1 1 2 1 3 8 8 6 3 3 7 3 6 10 22 4 8 11 8 11
13 11 10 11 10 9 10 12 13 12 8 9 11 11 2 1 5 1 7 7 5 3 3 1 1 2 2 2 2 7 7 6 9 9 9 7 15 11 18 13 6 6 6 10 16
12 10 10 12 11 9 10 11 13 12 9 7 10 11 1 4 1 6 7 4 3 3 2 2 2 4 2 3 3 2 7 15 10 6 5 4 3 1 1 7 10 12 14 14 15
12 10 10 12 11 10 10 11 13 11 8 8 8 2 1 10 1 6 6 2 2 2 1 1 3 2 3 2 2 4 12 12 2 2 1 3 5 6 4 10 14 12 13 15 17
12 11 11 12 10 10 9 12 13 11 6 6 3 1 6 2 1 5 4 3 4 4 3 2 3 3 1 1 5 3 2 6 3 6 1 1 10 5 6 15 9 11 14 16 17
12 11 12 11 9 9 9 11 11 10 4 1 1 2 6 0 3 4 5 4 5 4 5 4 3 2 2 1 3 5 5 5 9 7 2 0 14 2 8 7 2 8 11 13 19
12 11 11 10 8 8 9 6 5 2 2 2 1 2 4 3 2 3 3 7 3 5 1 2 4 1 2 3 3 3 5 4 10 3 8 9 18 19 13 4 6 6 9 12 17
11 11 11 9 7 5 4 3 2 0 3 8 6 3 1 1 1 2 3 7 4 3 3 3 3 10 8 8 3 3 4 9 13 5 6 5 15 14 8 10 9 8 11 15 17
13 12 10 8 5 3 3 3 4 1 6 15 8 8 4 2 3 3 5 6 5 7 3 2 11 13 5 5 4 3 6 11 9 2 4 7 10 6 6 4 4 6 10 12 14
12 11 10 8 5 4 5 6 1 1 3 5 6 7 7 9 6 7 11 6 4 5 7 9 3 6 3 4 4 5 8 6 6 8 1 9 2 1 3 5 5 5 5 8 13
10 10 9 10 4 4 5 3 3 2 2 5 4 4 6 9 6 1 7 5 3 6 5 7 4 6 3 5 6 7 5 3 3 4 4 5 3 4 3 5 3 3 5 10 11
9 10 11 6 6 5 1 6 5 2 2 2 2 0 3 10 7 2 1 2 9 7 4 4 3 4 2 3 8 3 1 2 1 1 2 1 2 3 2 9 6 4 3 6 8
8 10 11 4 1 3 4 6 3 3 6 4 3 5 6 2 2 3 3 4 2 5 3 9 2 3 3 1 3 6 0 3 3 3 2 2 2 4 8 9 9 6 4 5 6
8 13 11 7 5 6 5 4 4 4 1 6 5 5 5 6 4 4 6 7 6 4 7 2 3 1 2 3 1 3 2 5 2 1 2 2 2 7 3 4 9 13 6 4 2
7 11 8 3 3 9 4 4 6 4 6 2 5 6 7 8 4 5 4 5 8 4 2 3 3 5 2 2 3 3 3 3 4 3 4 2 6 1 8 6 6 8 7 5 3
14 5 4 3 6 5 6 8 8 7 3 8 5 4 5 5 4 5 8 5 8 18 8 5 2 1 2 1 1 3 3 3 4 1 2 3 5 5 2 6 9 7 4 2 0
8 7 4 1 8 6 6 11 6 5 2 3 8 5 7 6 7 9 9 4 5 12 2 4 2 1 1 2 5 2 7 2 1 3 5 5 7 7 9 11 7 5 3 1 5
5 7 1 1 4 4 13 9 8 8 4 4 5 4 4 6 9 7 4 3 4 6 6 5 2 1 1 6 7 4 3 3 4 3 4 4 6 6 17 11 8 6 1 7 5
7 6 1 2 10 4 12 7 6 3 3 3 3 5 7 7 6 7 7 6 6 10 9 5 4 5 7 1 1 2 4 8 5 5 3 2 10 5 16 10 5 6 6 4 3
10 4 3 3 13 9 4 5 4 4 5 4 5 5 3 5 2 6 4 1 4 7 8 9 2 1 3 2 0 4 5 4 5 3 11 9 7 4 7 6 2 5 7 3 2
7 6 2 2 0 11 11 7 11 4 6 3 2 3 3 3 3 2 3 2 1 3 4 7 6 7 13 5 5 5 7 9 8 7 9 20 17 8 15 15 9 6 6 1 5
4 8 7 11 12 8 11 9 14 10 7 6 4 11 7 4 3 6 5 3 0 4 3 5 7 7 10 8 6 7 10 12 17 18 18 24 25 20 17 13 8 9 2 3 5
9 6 3 6 8 19 11 9 12 12 10 7 9 10 13 15 14 5 6 5 6 3 6 1 5 4 7 4 7 12 17 20 24 23 22 20 28 7 5 8 8 5 2 3 4
3 1 3 7 8 16 14 13 17 10 8 10 14 8 9 18 14 7 6 2 3 7 11 7 8 4 10 3 6 14 18 23 7 9 13 22 16 12 11 10 7 5 1 6 6
Wind_Direction
256 253 255 256 274 280 285 288 286 289 299 307 312 319 324 336 333 140 254 212 145 143 110 108 70 33 37 79 72 115 95 250 254 223 281 274 335 307 291 270 278 224 245 261 105
249 254 254 259 267 277 286 287 282 283 295 306 311 321 324 333 340 253 240 170 140 145 112 99 58 37 72 92 60 105 168 234 219 219 276 290 296 287 293 286 278 274 266 208 158
245 253 259 260 266 284 288 285 282 283 294 306 311 320 327 325 352 258 266 165 148 132 94 95 103 76 64 13 174 170 224 225 256 249 263 284 280 215 253 290 263 290 303 272 218
240 246 256 266 271 275 283 284 284 282 294 306 312 321 331 345 190 336 134 148 133 125 105 95 66 110 211 253 200 272 247 240 272 248 222 260 262 265 223 264 332 297 282 272 249
239 245 257 264 265 273 276 280 281 282 293 308 314 326 0 11 258 81 123 129 116 107 107 128 285 153 260 209 249 239 273 253 261 272 268 271 263 262 267 296 320 328 341 302 274
241 246 253 262 263 264 273 273 277 280 290 307 314 317 88 243 272 159 141 140 140 126 111 145 211 208 219 233 212 273 279 283 284 259 265 262 285 220 39 348 352 352 345 330 322
242 246 246 254 259 262 271 271 274 279 294 306 305 288 180 243 91 163 163 137 147 141 161 185 148 189 152 261 320 318 308 319 336 52 333 194 293 242 352 358 15 15 4 4 4
235 236 242 246 253 260 261 272 274 280 295 306 287 165 250 252 85 164 170 125 105 82 92 120 121 119 197 107 4 345 8 342 342 339 111 114 291 274 2 6 6 17 19 19 21
233 232 237 243 253 260 262 277 282 288 259 243 166 190 263 38 218 215 166 164 126 91 51 80 74 105 57 82 340 20 304 313 317 20 3 310 289 295 336 331 66 34 17 17 23
230 237 239 240 241 258 268 267 291 304 75 177 228 264 252 229 187 141 142 140 134 121 73 42 60 131 89 138 260 299 302 286 288 301 331 293 277 303 314 224 140 56 26 29 35
232 233 236 237 237 249 275 113 112 290 220 207 188 201 268 190 140 122 138 124 103 81 231 15 255 243 235 205 161 247 258 286 282 289 323 312 306 324 12 125 115 58 36 32 34
223 219 223 222 213 215 144 198 215 148 261 236 233 247 253 203 175 186 143 158 158 213 139 305 263 261 203 187 228 233 279 294 294 226 333 327 324 1 67 92 89 67 37 28 26
212 208 205 188 159 155 198 219 281 119 252 270 197 210 221 184 223 214 169 155 173 194 213 226 248 113 178 227 247 243 251 258 270 325 51 336 322 93 64 93 82 58 30 40 42
206 201 191 156 168 151 227 214 199 206 305 259 197 239 171 149 228 188 176 150 154 227 204 244 266 244 210 235 177 280 221 201 278 330 299 9 270 233 186 151 113 70 46 56 53
201 191 184 166 135 173 273 116 138 56 315 146 137 67 163 167 142 52 135 105 190 186 149 257 213 203 192 213 170 212 233 296 237 180 352 265 200 233 207 202 182 177 92 74 71
193 185 160 173 130 248 115 103 74 86 252 166 154 189 146 137 99 112 128 71 121 185 223 247 292 265 237 139 165 128 150 53 73 111 244 205 180 267 188 208 185 194 184 115 82
189 181 182 169 179 140 133 107 112 206 3 185 184 183 177 164 157 152 164 175 187 170 225 224 220 253 177 189 61 102 23 307 310 299 234 134 238 259 282 259 199 176 172 143 130
180 171 228 224 153 135 99 84 200 242 215 123 139 138 183 163 197 161 146 212 223 187 161 210 263 191 181 224 190 159 172 213 280 281 293 264 243 233 318 305 192 140 139 143 177
143 164 167 217 156 112 137 193 213 214 207 160 130 166 203 195 167 155 203 219 212 188 202 184 257 72 59 37 112 159 194 139 113 76 290 270 285 299 36 101 137 142 127 198 201
140 157 185 343 149 109 165 216 225 220 231 175 194 181 188 190 174 178 194 212 220 198 154 191 211 81 114 90 55 181 146 137 56 261 272 287 278 231 178 165 157 155 192 28 92
128 153 9 72 110 133 200 212 232 246 235 196 198 162 193 186 186 186 200 242 191 160 176 153 168 114 99 209 201 150 193 85 128 170 231 285 266 223 182 168 160 192 153 136 96
154 170 42 74 166 175 196 186 198 230 203 214 143 188 188 177 183 206 213 228 183 151 163 182 140 214 221 182 170 200 204 175 195 222 201 182 270 298 180 156 175 208 167 144 83
147 112 50 95 201 193 192 200 217 183 209 188 201 206 198 175 196 208 200 10 170 171 165 173 190 220 298 359 292 231 203 173 124 121 213 223 255 182 169 173 288 228 194 203 353
141 145 79 171 312 185 175 196 209 206 235 185 178 140 152 194 213 191 222 177 125 148 112 143 171 201 240 248 158 200 210 198 186 216 231 226 242 204 215 231 283 218 197 253 348
123 207 175 187 211 195 187 203 195 201 211 194 224 221 193 202 220 230 215 186 150 132 122 179 230 216 252 235 208 228 240 214 213 229 237 261 239 231 227 241 222 173 138 340 340
163 167 137 174 162 189 190 203 193 208 178 205 209 216 199 216 212 208 181 204 211 154 171 161 226 185 270 259 233 258 253 252 245 249 254 262 263 211 244 133 143 156 198 317 337
170 152 157 164 150 180 209 192 206 190 217 213 211 196 201 228 222 216 187 176 178 174 186 176 171 174 265 318 329 283 250 237 235 232 246 246 252 167 156 160 171 172 177 352 357